DW1653 Weather Reports


Display with metric or nautical units.
time (UTC)temp
F
wind
direction
speed
MPH
gust
MPH
rain 1hr
in
rain 24hr
in
rain mn
in
humidity
%
barometer
mb
20260509053339 57 271 2.0 8.0 0.00 0.00 0.00 66 1013.6
20260509052815 57 223 3.0 8.0 0.00 0.00 0.00 66 1013.5
20260509052346 57 230 3.0 9.0 0.00 0.00 0.00 66 1013.6
20260509051816 57 263 3.0 9.0 0.00 0.00 0.00 66 1013.7
20260509051327 57 247 3.0 6.0 0.00 0.00 0.00 66 1013.7
20260509050818 57 207 3.0 6.0 0.00 0.00 0.00 66 1013.7
20260509050330 57 224 3.0 6.0 0.00 0.00 0.00 66 1013.7
20260509045841 57 244 2.0 6.0 0.00 0.00 0.00 66 1013.7
20260509045312 57 244 2.0 8.0 0.00 0.00 0.00 66 1013.7
20260509044826 57 234 4.0 7.0 0.00 0.00 0.00 67 1013.8
20260509044322 57 219 2.0 5.0 0.00 0.00 0.00 66 1013.7
20260509043834 57 239 2.0 7.0 0.00 0.00 0.00 66 1013.6
20260509043326 57 165 2.0 6.0 0.00 0.00 0.00 66 1013.6
20260509042822 57 186 2.0 4.0 0.00 0.00 0.00 66 1013.4
20260509042353 57 216 2.0 6.0 0.00 0.00 0.00 66 1013.5
20260509041824 57 246 2.0 6.0 0.00 0.00 0.00 66 1013.5
20260509041318 57 251 2.0 5.0 0.00 0.00 0.00 65 1013.4
20260509040829 57 250 2.0 7.0 0.00 0.00 0.00 65 1013.3
20260509040321 57 230 2.0 8.0 0.00 0.00 0.00 65 1013.3
20260509035851 58 199 2.0 5.0 0.00 0.00 0.00 65 1013.3
20260509035326 58 242 3.0 5.0 0.00 0.00 0.00 65 1013.4
20260509034817 58 236 2.0 7.0 0.00 0.00 0.00 64 1013.4
20260509034331 58 236 2.0 7.0 0.00 0.00 0.00 64 1013.4
20260509033823 58 136 3.0 7.0 0.00 0.00 0.00 64 1013.4
20260509033334 58 229 4.0 6.0 0.00 0.00 0.00 64 1013.3
20260509032845 58 228 2.0 4.0 0.00 0.00 0.00 63 1013.3
20260509031827 58 216 2.0 5.0 0.00 0.00 0.00 63 1013.3
20260509031319 58 229 2.0 5.0 0.00 0.00 0.00 63 1013.3
20260509030814 58 201 1.0 6.0 0.00 0.00 0.00 62 1013.3
20260509030326 58 235 2.0 6.0 0.00 0.00 0.00 62 1013.3
20260509025818 58 184 1.0 4.0 0.00 0.00 0.00 62 1013.3
20260509025329 58 178 1.0 3.0 0.00 0.00 0.00 61 1013.3
20260509024821 58 193 1.0 4.0 0.00 0.00 0.00 61 1013.2
20260509024332 58 237 1.0 4.0 0.00 0.00 0.00 61 1013.2
20260509023824 58 213 1.0 5.0 0.00 0.00 0.00 60 1013.2
20260509023315 59 241 1.0 5.0 0.00 0.00 0.00 60 1013.2
20260509022830 59 211 1.0 3.0 0.00 0.00 0.00 59 1013.2
20260509022325 59 258 1.0 2.0 0.00 0.00 0.00 59 1013.3
20260509021817 59 217 1.0 2.0 0.00 0.00 0.00 59 1013.2
20260509021332 59 217 1.0 2.0 0.00 0.00 0.00 59 1013.3
20260509020823 59 213 1.0 3.0 0.00 0.00 0.00 59 1013.4
20260509020315 59 244 1.0 3.0 0.00 0.00 0.00 58 1013.4
20260509015827 59 260 1.0 6.0 0.00 0.00 0.00 58 1013.3
20260509015318 59 214 2.0 4.0 0.00 0.00 0.00 58 1013.3
20260509014814 59 218 2.0 4.0 0.00 0.00 0.00 57 1013.2
20260509014329 59 191 2.0 5.0 0.00 0.00 0.00 57 1013.2
20260509013821 59 183 1.0 5.0 0.00 0.00 0.00 57 1013.1
20260509013331 59 216 1.0 3.0 0.00 0.00 0.00 56 1013.1
20260509012822 59 242 2.0 4.0 0.00 0.00 0.00 56 1013.0
20260509012314 59 190 1.0 5.0 0.00 0.00 0.00 56 1012.9
20260509011845 59 212 1.0 4.0 0.00 0.00 0.00 56 1012.8
20260509011316 59 182 1.0 3.0 0.00 0.00 0.00 55 1012.8
20260509010848 59 202 2.0 3.0 0.00 0.00 0.00 55 1012.7
20260509010338 59 222 2.0 6.0 0.00 0.00 0.00 55 1012.6
20260509005833 60 216 3.0 6.0 0.00 0.00 0.00 55 1012.6
20260509005345 60 194 2.0 7.0 0.00 0.00 0.00 55 1012.5
20260509004818 60 194 4.0 7.0 0.00 0.00 0.00 54 1012.4
20260509004353 60 207 2.0 6.0 0.00 0.00 0.00 55 1012.4
20260509003824 60 209 2.0 6.0 0.00 0.00 0.00 54 1012.2
20260509003316 60 213 2.0 5.0 0.00 0.00 0.00 54 1012.2
20260509002848 60 224 1.0 7.0 0.00 0.00 0.00 54 1012.1
20260509002319 60 254 3.0 8.0 0.00 0.00 0.00 54 1012.1
20260509001831 60 224 3.0 10.0 0.00 0.00 0.00 55 1012.1
20260509001321 60 163 4.0 10.0 0.00 0.00 0.00 55 1011.9
20260509000816 60 175 4.0 10.0 0.00 0.00 0.00 56 1012.0
20260509000348 59 200 5.0 10.0 0.00 0.00 0.00 58 1011.9
20260508235819 59 174 2.0 10.0 0.00 0.00 0.00 60 1011.8
20260508235352 59 165 3.0 7.0 0.00 0.00 0.00 61 1011.8
20260508234842 58 191 2.0 5.0 0.00 0.00 0.00 61 1011.7
20260508234333 58 155 1.0 3.0 0.00 0.00 0.00 62 1011.7
20260508233823 58 149 1.0 6.0 0.00 0.00 0.00 62 1011.6
20260508233315 58 165 1.0 6.0 0.00 0.00 0.00 62 1011.5
20260508232827 58 155 2.0 6.0 0.00 0.00 0.00 62 1011.5
20260508232321 59 173 2.0 6.0 0.00 0.00 0.00 62 1011.4
20260508231817 59 155 2.0 5.0 0.00 0.00 0.00 61 1011.4
20260508231348 59 132 2.0 5.0 0.00 0.00 0.00 61 1011.4
20260508230818 59 136 2.0 5.0 0.00 0.00 0.00 60 1011.3
20260508230330 59 107 2.0 5.0 0.00 0.00 0.00 60 1011.4
20260508225821 60 139 2.0 5.0 0.00 0.00 0.00 58 1011.3
20260508225333 60 122 2.0 5.0 0.00 0.00 0.00 56 1011.3
20260508224823 60 178 2.0 6.0 0.00 0.00 0.00 56 1011.3
20260508224314 60 129 2.0 7.0 0.00 0.00 0.00 57 1011.3
20260508223825 61 134 3.0 7.0 0.00 0.00 0.00 55 1011.3
20260508223320 62 96 2.0 4.0 0.00 0.00 0.00 52 1011.3
20260508222812 62 148 2.0 7.0 0.00 0.00 0.00 52 1011.3
20260508222346 61 126 2.0 8.0 0.00 0.00 0.00 52 1011.3
20260508221816 61 144 4.0 8.0 0.00 0.00 0.00 52 1011.3
20260508221328 62 132 4.0 6.0 0.00 0.00 0.00 51 1011.2
20260508220839 63 114 2.0 5.0 0.00 0.00 0.00 48 1011.4
20260508220330 66 72 2.0 6.0 0.00 0.00 0.00 43 1011.3
20260508215840 67 284 2.0 6.0 0.00 0.00 0.00 37 1011.2
20260508215330 67 331 3.0 7.0 0.00 0.00 0.00 36 1011.3
20260508214821 67 173 3.0 8.0 0.00 0.00 0.00 37 1011.2
20260508214337 67 340 3.0 9.0 0.00 0.00 0.00 37 1011.3
20260508213828 67 344 3.0 9.0 0.00 0.00 0.00 36 1011.4
20260508213319 68 350 5.0 8.0 0.00 0.00 0.00 36 1011.3
20260508212333 68 342 3.0 10.0 0.00 0.00 0.00 36 1011.2
20260508211844 67 315 6.0 11.0 0.00 0.00 0.00 37 1011.2
20260508211315 67 19 6.0 11.0 0.00 0.00 0.00 37 1011.2
20260508210826 66 360 5.0 14.0 0.00 0.00 0.00 37 1011.3
20260508210338 66 333 7.0 14.0 0.00 0.00 0.00 36 1011.3
20260508205828 66 327 4.0 16.0 0.00 0.00 0.00 36 1011.2
20260508205320 66 290 6.0 16.0 0.00 0.00 0.00 35 1011.4
20260508204815 67 333 3.0 11.0 0.00 0.00 0.00 36 1011.4
20260508204326 67 227 3.0 11.0 0.00 0.00 0.00 35 1011.3
20260508203835 67 311 3.0 11.0 0.00 0.00 0.00 35 1011.2
20260508203346 67 355 2.0 11.0 0.00 0.00 0.00 35 1011.2
20260508202816 67 295 3.0 10.0 0.00 0.00 0.00 34 1011.3
20260508202330 66 311 3.0 10.0 0.00 0.00 0.00 34 1011.3
20260508201820 66 281 3.0 14.0 0.00 0.00 0.00 34 1011.3
20260508201331 66 279 7.0 16.0 0.00 0.00 0.00 33 1011.2
20260508200821 67 199 6.0 16.0 0.00 0.00 0.00 32 1011.2
20260508200333 67 279 5.0 15.0 0.00 0.00 0.00 33 1011.2
20260508195823 67 297 4.0 9.0 0.00 0.00 0.00 32 1011.2
20260508195321 67 309 3.0 13.0 0.00 0.00 0.00 33 1011.2
20260508194852 67 275 8.0 13.0 0.00 0.00 0.00 31 1011.2
20260508194322 68 268 5.0 12.0 0.00 0.00 0.00 33 1011.3
20260508193837 67 260 2.0 12.0 0.00 0.00 0.00 34 1011.2
20260508193327 67 288 4.0 12.0 0.00 0.00 0.00 33 1011.3
20260508192819 67 249 6.0 12.0 0.00 0.00 0.00 33 1011.4
20260508192331 67 304 5.0 11.0 0.00 0.00 0.00 33 1011.4
20260508191822 67 277 3.0 11.0 0.00 0.00 0.00 33 1011.5
20260508191354 67 234 6.0 14.0 0.00 0.00 0.00 32 1011.6
20260508190844 68 265 7.0 15.0 0.00 0.00 0.00 32 1011.7
20260508190317 68 244 7.0 15.0 0.00 0.00 0.00 32 1011.7
20260508185829 67 303 5.0 14.0 0.00 0.00 0.00 32 1011.8
20260508185323 68 288 5.0 14.0 0.00 0.00 0.00 30 1012.0
20260508184815 69 298 7.0 17.0 0.00 0.00 0.00 30 1012.0
20260508184326 70 266 8.0 17.0 0.00 0.00 0.00 29 1012.1
20260508183818 70 294 8.0 16.0 0.00 0.00 0.00 30 1012.2
20260508183330 70 293 5.0 16.0 0.00 0.00 0.00 30 1012.0
20260508182821 70 291 7.0 16.0 0.00 0.00 0.00 30 1012.1
20260508182352 69 238 8.0 20.0 0.00 0.00 0.00 31 1012.2
20260508181827 69 267 9.0 20.0 0.00 0.00 0.00 30 1012.3
20260508181338 70 273 7.0 18.0 0.00 0.00 0.00 30 1012.2
20260508180828 69 275 11.0 20.0 0.00 0.00 0.00 30 1012.4
20260508180322 68 273 9.0 20.0 0.00 0.00 0.00 31 1012.3
20260508175835 69 284 3.0 12.0 0.00 0.00 0.00 31 1012.2
20260508175328 69 313 4.0 16.0 0.00 0.00 0.00 31 1012.3
20260508174820 69 269 8.0 16.0 0.00 0.00 0.00 31 1012.3
20260508174331 69 257 7.0 16.0 0.00 0.00 0.00 32 1012.2
20260508173842 69 267 7.0 19.0 0.00 0.00 0.00 31 1012.3
20260508173333 69 298 6.0 21.0 0.00 0.00 0.00 31 1012.3
20260508172826 70 261 6.0 21.0 0.00 0.00 0.00 31 1012.3
20260508172322 69 302 2.0 9.0 0.00 0.00 0.00 34 1012.3
20260508171833 68 298 5.0 11.0 0.00 0.00 0.00 33 1012.5
20260508171344 67 309 4.0 16.0 0.00 0.00 0.00 33 1012.3
20260508170815 67 304 7.0 16.0 0.00 0.00 0.00 33 1012.5
20260508170330 68 288 5.0 12.0 0.00 0.00 0.00 32 1012.6
20260508165821 67 263 3.0 17.0 0.00 0.00 0.00 34 1012.6
20260508165316 66 179 5.0 17.0 0.00 0.00 0.00 35 1012.7
20260508164826 66 280 7.0 15.0 0.00 0.00 0.00 34 1012.8
20260508164322 66 348 7.0 22.0 0.00 0.00 0.00 33 1012.8
20260508163814 66 260 11.0 22.0 0.00 0.00 0.00 33 1012.9
20260508163326 66 289 8.0 14.0 0.00 0.00 0.00 33 1013.0
20260508162817 66 270 8.0 16.0 0.00 0.00 0.00 34 1013.0
20260508162329 66 306 4.0 14.0 0.00 0.00 0.00 35 1013.1
20260508161821 66 231 7.0 13.0 0.00 0.00 0.00 33 1013.2
20260508161332 66 288 4.0 18.0 0.00 0.00 0.00 36 1013.2
20260508160823 66 282 5.0 18.0 0.00 0.00 0.00 34 1013.3
20260508160321 67 312 5.0 12.0 0.00 0.00 0.00 34 1013.3
20260508155853 66 236 5.0 12.0 0.00 0.00 0.00 35 1013.1
20260508155323 65 16 4.0 12.0 0.00 0.00 0.00 36 1013.2
20260508154818 65 302 6.0 13.0 0.00 0.00 0.00 35 1013.3
20260508154332 66 238 5.0 13.0 0.00 0.00 0.00 34 1013.4
20260508153317 65 274 6.0 17.0 0.00 0.00 0.00 35 1013.5
20260508152829 65 268 7.0 14.0 0.00 0.00 0.00 35 1013.5
20260508152320 65 234 7.0 13.0 0.00 0.00 0.00 36 1013.6
20260508151815 65 249 7.0 11.0 0.00 0.00 0.00 37 1013.6
20260508151327 65 240 5.0 10.0 0.00 0.00 0.00 38 1013.6
20260508150819 64 5 2.0 10.0 0.00 0.00 0.00 39 1013.6
20260508150350 64 262 4.0 10.0 0.00 0.00 0.00 38 1013.6
20260508145820 63 272 2.0 9.0 0.00 0.00 0.00 39 1013.7
20260508145330 64 242 5.0 9.0 0.00 0.00 0.00 37 1013.7
20260508144822 64 300 3.0 6.0 0.00 0.00 0.00 39 1013.7
20260508144313 63 341 2.0 7.0 0.00 0.00 0.00 38 1013.7
20260508143827 63 287 3.0 7.0 0.00 0.00 0.00 39 1013.7
20260508143318 63 344 3.0 7.0 0.00 0.00 0.00 41 1013.8
20260508142833 63 292 3.0 7.0 0.00 0.00 0.00 41 1013.8
20260508142324 62 269 5.0 7.0 0.00 0.00 0.00 40 1013.8
20260508141815 61 355 3.0 8.0 0.00 0.00 0.00 44 1013.7
20260508141347 61 294 3.0 9.0 0.00 0.00 0.00 43 1013.7
20260508140817 60 327 3.0 10.0 0.00 0.00 0.00 45 1013.8
20260508140352 60 298 6.0 10.0 0.00 0.00 0.00 46 1013.9
20260508135822 60 315 3.0 10.0 0.00 0.00 0.00 47 1013.9
20260508134847 59 267 3.0 9.0 0.00 0.00 0.00 51 1013.9
20260508134319 59 267 3.0 8.0 0.00 0.00 0.00 51 1014.0
20260508133814 59 285 5.0 8.0 0.00 0.00 0.00 50 1014.0
20260508133326 58 313 2.0 6.0 0.00 0.00 0.00 53 1014.0
20260508132838 57 346 3.0 12.0 0.00 0.00 0.00 54 1013.9
20260508132328 57 211 4.0 12.0 0.00 0.00 0.00 54 1014.0
20260508131820 56 252 6.0 10.0 0.00 0.00 0.00 56 1014.1
20260508131314 56 300 2.0 8.0 0.00 0.00 0.00 59 1014.0
20260508130829 55 269 3.0 9.0 0.00 0.00 0.00 59 1014.0
20260508130321 55 346 4.0 9.0 0.00 0.00 0.00 62 1014.0
20260508125852 54 195 3.0 9.0 0.00 0.00 0.00 64 1014.0
20260508125322 54 266 3.0 10.0 0.00 0.00 0.00 65 1014.1
20260508124819 54 275 3.0 12.0 0.00 0.00 0.00 66 1014.1
20260508124330 53 272 6.0 12.0 0.00 0.00 0.00 66 1014.1
20260508123845 53 310 3.0 7.0 0.00 0.00 0.00 67 1014.0
20260508123316 52 331 2.0 7.0 0.00 0.00 0.00 68 1013.9
20260508122829 52 308 3.0 6.0 0.00 0.00 0.00 70 1013.9
20260508122321 51 274 4.0 8.0 0.00 0.00 0.00 70 1013.9
20260508121324 51 262 2.0 7.0 0.00 0.00 0.00 72 1014.0
20260508120819 51 301 4.0 8.0 0.00 0.00 0.00 73 1014.1
20260508120330 50 294 3.0 9.0 0.00 0.00 0.00 73 1014.2
20260508115821 50 288 5.0 9.0 0.00 0.00 0.00 74 1014.1
20260508115353 50 278 2.0 6.0 0.00 0.00 0.00 75 1014.0
20260508114823 50 301 2.0 8.0 0.00 0.00 0.00 75 1013.9
20260508114354 49 276 4.0 8.0 0.00 0.00 0.00 76 1013.9
20260508113844 49 253 4.0 7.0 0.00 0.00 0.00 77 1013.9
20260508113334 49 355 2.0 4.0 0.00 0.00 0.00 78 1013.8
20260508112824 48 290 1.0 8.0 0.00 0.00 0.00 77 1013.8
20260508112316 48 283 4.0 7.0 0.00 0.00 0.00 78 1013.7
20260508111827 48 269 3.0 5.0 0.00 0.00 0.00 78 1013.6
20260508111322 48 291 2.0 5.0 0.00 0.00 0.00 78 1013.5
20260508110834 47 276 2.0 5.0 0.00 0.00 0.00 78 1013.5
20260508110346 47 286 1.0 3.0 0.00 0.00 0.00 78 1013.4
20260508105816 47 271 2.0 3.0 0.00 0.00 0.00 78 1013.4
20260508105328 47 267 1.0 4.0 0.00 0.00 0.00 78 1013.3
20260508104819 47 275 2.0 4.0 0.00 0.00 0.00 78 1013.4
20260508104330 47 272 0.0 2.0 0.00 0.00 0.00 77 1013.3
20260508103821 47 278 0.0 3.0 0.00 0.00 0.00 77 1013.3
20260508103333 47 277 1.0 3.0 0.00 0.00 0.00 76 1013.2
20260508102827 47 288 1.0 2.0 0.00 0.00 0.00 76 1013.1
20260508102323 47 288 0.0 1.0 0.00 0.00 0.00 76 1013.1
20260508101834 47 306 0.0 1.0 0.00 0.00 0.00 76 1013.1
20260508101325 47 316 1.0 2.0 0.00 0.00 0.00 75 1013.0
20260508100816 47 325 1.0 3.0 0.00 0.00 0.00 75 1013.0
20260508100327 47 284 2.0 3.0 0.00 0.00 0.00 75 1013.0
20260508095819 48 296 0.0 3.0 0.00 0.00 0.00 74 1012.9
20260508095312 48 298 1.0 3.0 0.00 0.00 0.00 74 1012.8
20260508094825 48 360 1.0 3.0 0.00 0.00 0.00 73 1012.9
20260508094321 48 18 1.0 5.0 0.00 0.00 0.00 73 1012.7
20260508093832 48 283 2.0 8.0 0.00 0.00 0.00 72 1012.8
20260508093323 49 309 1.0 8.0 0.00 0.00 0.00 72 1012.7
20260508092815 49 304 1.0 4.0 0.00 0.00 0.00 72 1012.7
20260508092326 49 305 2.0 4.0 0.00 0.00 0.00 72 1012.5
20260508091818 49 26 2.0 7.0 0.00 0.00 0.00 71 1012.5
20260508091333 49 342 2.0 5.0 0.00 0.00 0.00 71 1012.4
20260508090824 49 315 3.0 7.0 0.00 0.00 0.00 71 1012.3
20260508090339 49 350 5.0 8.0 0.00 0.00 0.00 72 1012.2
20260508085829 49 355 4.0 8.0 0.00 0.00 0.00 72 1012.0
20260508085341 49 335 4.0 8.0 0.00 0.00 0.00 73 1012.0
20260508084812 50 321 4.0 8.0 0.00 0.00 0.00 73 1011.9
20260508084325 50 306 4.0 8.0 0.00 0.00 0.00 74 1011.9
20260508083817 50 340 2.0 9.0 0.00 0.01 0.00 74 1011.8
20260508083348 50 324 4.0 9.0 0.00 0.01 0.00 74 1011.7
20260508082818 50 323 3.0 9.0 0.00 0.01 0.00 75 1011.6
20260508082330 50 300 3.0 8.0 0.00 0.01 0.00 75 1011.5
20260508081822 50 291 2.0 4.0 0.00 0.01 0.00 76 1011.5
20260508081317 51 275 2.0 5.0 0.00 0.01 0.00 76 1011.2
20260508080828 51 338 2.0 6.0 0.00 0.01 0.00 76 1010.9
20260508080319 51 336 2.0 6.0 0.00 0.01 0.00 77 1010.7
20260508075831 51 342 3.0 6.0 0.00 0.01 0.00 78 1010.6
20260508075322 51 344 4.0 9.0 0.00 0.01 0.00 79 1010.4
20260508074813 51 313 5.0 9.0 0.00 0.01 0.00 80 1010.4
20260508074328 51 36 3.0 8.0 0.00 0.01 0.00 81 1010.1
20260508073819 51 331 5.0 8.0 0.00 0.08 0.00 82 1010.1
20260508073315 51 333 3.0 7.0 0.00 0.08 0.00 83 1009.9
20260508072826 51 17 3.0 7.0 0.00 0.08 0.00 84 1009.9
20260508072338 50 326 2.0 8.0 0.00 0.08 0.00 85 1010.1
20260508071828 50 12 3.0 9.0 0.00 0.08 0.00 85 1010.0
20260508071320 50 322 4.0 9.0 0.00 0.08 0.00 86 1009.9
20260508070814 50 323 3.0 9.0 0.00 0.08 0.00 86 1009.8
20260508070325 50 335 2.0 6.0 0.00 0.08 0.00 86 1010.0
20260508065817 50 322 2.0 11.0 0.00 0.08 0.00 86 1009.9
20260508065328 50 306 3.0 11.0 0.00 0.08 0.00 86 1010.0
20260508064824 50 288 1.0 7.0 0.00 0.08 0.00 86 1009.9
20260508064317 50 272 3.0 7.0 0.00 0.08 0.00 86 1009.8
20260508063828 50 279 3.0 6.0 0.00 0.09 0.00 86 1009.7
20260508063320 50 253 4.0 6.0 0.00 0.09 0.00 86 1009.7
20260508062830 50 288 2.0 7.0 0.00 0.09 0.00 86 1009.6
20260508062322 50 275 3.0 7.0 0.00 0.09 0.00 86 1009.5
20260508061814 50 274 3.0 7.0 0.00 0.09 0.00 86 1009.5
20260508061329 50 245 4.0 7.0 0.00 0.09 0.00 86 1009.5
20260508060824 50 269 3.0 7.0 0.00 0.09 0.00 86 1009.6
20260508060317 50 265 3.0 7.0 0.00 0.09 0.00 86 1009.6
20260508055827 50 265 4.0 8.0 0.00 0.09 0.00 86 1009.6
20260508055319 50 261 4.0 8.0 0.00 0.09 0.00 86 1009.6
20260508054830 50 243 4.0 8.0 0.00 0.09 0.00 86 1009.6
20260508054321 50 247 3.0 6.0 0.00 0.09 0.00 85 1009.5
20260508053833 50 270 3.0 6.0 0.00 0.09 0.00 85 1009.5